FW7718 Weather Reports


Display with metric or nautical units.
time (UTC)temp
F
wind
direction
speed
MPH
gust
MPH
rain 1hr
in
rain 24hr
in
rain mn
in
humidity
%
barometer
mb
20260509012612 72 168 3.0 5.0 0.00 0.19 0.19 76 1010.3
20260509012108 72 174 3.0 5.0 0.00 0.19 0.19 75 1010.2
20260509011606 72 164 4.0 5.0 0.00 0.19 0.19 75 1010.4
20260509011103 72 195 3.0 5.0 0.00 0.19 0.19 75 1010.4
20260509010601 72 159 4.0 5.0 0.00 0.19 0.19 75 1010.3
20260509010057 72 167 2.0 2.0 0.00 0.19 0.19 75 1010.3
20260509005555 72 155 4.0 6.0 0.00 0.19 0.19 75 1010.2
20260509005050 73 197 3.0 5.0 0.00 0.19 0.19 75 1010.0
20260509004547 73 131 1.0 1.0 0.00 0.19 0.19 75 1009.9
20260509004044 73 152 1.0 2.0 0.00 0.19 0.19 74 1009.8
20260509003542 74 180 4.0 5.0 0.00 0.19 0.19 73 1009.7
20260509003039 74 191 4.0 5.0 0.00 0.19 0.19 72 1009.8
20260509002537 74 159 6.0 7.0 0.00 0.19 0.19 72 1009.9
20260509002034 74 175 5.0 6.0 0.00 0.19 0.19 71 1009.9
20260509001531 74 187 5.0 6.0 0.00 0.19 0.19 71 1009.9
20260509001027 74 180 6.0 9.0 0.00 0.19 0.19 71 1009.9
20260509000526 75 185 4.0 5.0 0.00 0.19 0.19 71 1009.9
20260509000021 75 211 4.0 6.0 0.00 0.19 0.19 72 1009.9
20260508235520 75 142 5.0 6.0 0.00 0.19 0.19 71 1009.8
20260508235015 75 180 5.0 6.0 0.00 0.19 0.19 70 1010.0
20260508234513 75 192 6.0 6.0 0.00 0.19 0.19 69 1010.1
20260508234010 75 131 7.0 9.0 0.00 0.19 0.19 69 1009.9
20260508233509 76 180 5.0 9.0 0.00 0.19 0.19 69 1010.2
20260508233006 76 192 8.0 9.0 0.00 0.19 0.19 68 1010.0
20260508232503 76 160 8.0 9.0 0.00 0.19 0.19 68 1010.2
20260508232000 77 195 8.0 9.0 0.00 0.19 0.19 65 1010.4
20260508231457 78 170 7.0 7.0 0.00 0.19 0.19 64 1010.3
20260508230954 78 140 4.0 5.0 0.00 0.19 0.19 63 1010.1
20260508230451 78 164 5.0 7.0 0.00 0.19 0.19 63 1010.4
20260508225948 77 98 5.0 6.0 0.00 0.19 0.19 63 1010.2
20260508225444 77 136 4.0 6.0 0.00 0.19 0.19 63 1010.1
20260508224942 77 179 5.0 7.0 0.00 0.19 0.19 63 1010.1
20260508224439 77 169 7.0 8.0 0.00 0.19 0.19 65 1009.9
20260508223936 77 135 6.0 7.0 0.00 0.19 0.19 63 1010.0
20260508223434 78 173 5.0 6.0 0.00 0.19 0.19 62 1010.0
20260508222931 78 209 4.0 5.0 0.00 0.19 0.19 62 1010.2
20260508222429 78 187 7.0 7.0 0.00 0.19 0.19 62 1010.0
20260508221925 78 117 5.0 5.0 0.00 0.19 0.19 62 1009.7
20260508221421 78 131 4.0 5.0 0.00 0.19 0.19 61 1009.6
20260508220917 77 121 5.0 7.0 0.00 0.19 0.19 64 1009.7
20260508220414 77 161 7.0 7.0 0.00 0.19 0.19 61 1009.6
20260508215910 77 178 9.0 10.0 0.00 0.19 0.19 62 1009.9
20260508215407 78 175 8.0 9.0 0.00 0.19 0.19 60 1010.4
20260508214904 78 187 6.0 7.0 0.00 0.19 0.19 63 1010.5
20260508214402 77 187 7.0 9.0 0.00 0.19 0.19 63 1010.5
20260508213858 76 172 7.0 8.0 0.00 0.19 0.19 66 1010.6
20260508213355 75 179 7.0 7.0 0.00 0.19 0.19 67 1010.7
20260508212850 75 194 7.0 8.0 0.00 0.19 0.19 67 1011.0
20260508212347 75 172 5.0 7.0 0.00 0.19 0.19 67 1011.1
20260508211843 76 188 7.0 8.0 0.00 0.19 0.19 66 1011.1
20260508211339 76 207 7.0 8.0 0.00 0.19 0.19 67 1011.0
20260508210837 76 210 9.0 10.0 0.00 0.19 0.19 65 1011.4
20260508210333 76 181 5.0 6.0 0.00 0.19 0.19 66 1011.6
20260508205830 76 188 5.0 6.0 0.00 0.19 0.19 67 1011.2
20260508205326 76 156 9.0 10.0 0.00 0.19 0.19 65 1011.4
20260508204822 76 181 6.0 7.0 0.00 0.19 0.19 65 1011.6
20260508204319 77 150 5.0 6.0 0.00 0.19 0.19 64 1011.6
20260508203815 77 143 4.0 6.0 0.00 0.19 0.19 62 1011.6
20260508203312 77 160 3.0 3.0 0.00 0.19 0.19 60 1011.6
20260508202807 77 205 4.0 5.0 0.00 0.19 0.19 60 1011.7
20260508202307 78 199 3.0 3.0 0.00 0.19 0.19 59 1011.9
20260508201802 78 215 4.0 5.0 0.00 0.19 0.19 61 1012.0
20260508201259 78 157 4.0 5.0 0.00 0.19 0.19 60 1012.0
20260508200755 78 209 5.0 7.0 0.00 0.19 0.19 58 1011.9
20260508200252 78 188 6.0 7.0 0.00 0.19 0.19 62 1012.0
20260508195748 77 110 3.0 3.0 0.00 0.19 0.19 61 1012.0
20260508195244 77 162 4.0 5.0 0.00 0.19 0.19 62 1012.0
20260508194741 77 203 4.0 5.0 0.00 0.19 0.19 63 1012.1
20260508194238 76 173 4.0 6.0 0.00 0.19 0.19 62 1012.2
20260508193735 76 188 6.0 7.0 0.00 0.19 0.19 62 1012.3
20260508193232 76 164 4.0 5.0 0.00 0.19 0.19 64 1012.0
20260508192728 76 135 5.0 7.0 0.00 0.19 0.19 61 1012.3
20260508192225 77 132 7.0 8.0 0.00 0.19 0.19 59 1012.3
20260508191723 78 164 4.0 5.0 0.00 0.19 0.19 58 1012.1
20260508191220 77 183 7.0 9.0 0.00 0.19 0.19 61 1012.5
20260508190717 78 165 3.0 3.0 0.00 0.19 0.19 59 1012.5
20260508190213 77 163 6.0 8.0 0.00 0.19 0.19 58 1012.6
20260508185709 77 182 8.0 9.0 0.00 0.19 0.19 57 1012.5
20260508185208 78 177 8.0 10.0 0.00 0.19 0.19 58 1012.6
20260508184705 77 172 7.0 8.0 0.00 0.19 0.19 60 1012.7
20260508184202 77 167 5.0 7.0 0.00 0.19 0.19 59 1012.7
20260508183658 77 119 5.0 7.0 0.00 0.19 0.19 58 1012.8
20260508183154 77 137 7.0 8.0 0.00 0.19 0.19 56 1012.9
20260508182650 76 69 2.0 2.0 0.00 0.19 0.19 60 1013.0
20260508182147 76 118 6.0 7.0 0.00 0.19 0.19 58 1013.1
20260508181642 76 114 8.0 10.0 0.00 0.19 0.19 64 1013.4
20260508181140 76 85 3.0 3.0 0.00 0.19 0.19 59 1013.5
20260508180636 75 120 3.0 3.0 0.00 0.19 0.19 62 1013.4
20260508180133 74 140 3.0 3.0 0.00 0.19 0.19 66 1013.6
20260508175630 73 119 4.0 5.0 0.00 0.19 0.19 65 1013.6
20260508175127 75 190 5.0 6.0 0.00 0.19 0.19 63 1013.8
20260508174624 74 159 3.0 3.0 0.00 0.19 0.19 64 1013.9
20260508174121 74 201 7.0 8.0 0.00 0.19 0.19 63 1014.1
20260508173618 74 141 4.0 5.0 0.00 0.19 0.19 63 1014.1
20260508173114 75 155 5.0 5.0 0.00 0.19 0.19 63 1014.2
20260508172611 74 155 3.0 5.0 0.00 0.19 0.19 67 1014.5
20260508172108 73 181 5.0 6.0 0.00 0.19 0.19 66 1014.3
20260508171604 72 183 5.0 6.0 0.00 0.19 0.19 63 1014.6
20260508171101 73 192 7.0 9.0 0.00 0.19 0.19 65 1014.7
20260508170558 73 204 7.0 8.0 0.00 0.19 0.19 70 1014.8
20260508170055 73 180 4.0 5.0 0.00 0.19 0.19 68 1014.6
20260508165552 73 230 6.0 7.0 0.00 0.19 0.19 66 1015.0
20260508165049 73 198 7.0 8.0 0.00 0.19 0.19 67 1015.2
20260508164546 72 199 3.0 6.0 0.00 0.19 0.19 65 1015.0
20260508164042 72 215 6.0 7.0 0.00 0.19 0.19 68 1015.2
20260508163540 72 152 5.0 7.0 0.00 0.19 0.19 70 1015.2
20260508163037 72 192 5.0 6.0 0.00 0.19 0.19 70 1015.3
20260508162533 71 199 4.0 5.0 0.00 0.19 0.19 71 1015.1
20260508162031 71 196 8.0 9.0 0.00 0.19 0.19 71 1015.5
20260508161527 71 196 6.0 7.0 0.00 0.19 0.19 69 1015.8
20260508161025 71 175 3.0 3.0 0.00 0.19 0.19 73 1015.5
20260508160523 70 139 2.0 3.0 0.00 0.19 0.19 73 1015.4
20260508160020 71 191 9.0 11.0 0.00 0.19 0.19 72 1015.5
20260508155517 70 149 5.0 7.0 0.00 0.19 0.19 75 1015.4
20260508155014 69 135 2.0 2.0 0.00 0.19 0.19 82 1015.4
20260508154511 68 120 3.0 3.0 0.00 0.19 0.19 82 1015.6
20260508154008 68 145 0.0 0.0 0.00 0.19 0.19 80 1015.9
20260508153504 67 128 2.0 2.0 0.00 0.19 0.19 82 1015.8
20260508153000 66 114 4.0 5.0 0.00 0.19 0.19 84 1015.5
20260508152458 66 124 4.0 6.0 0.00 0.19 0.19 83 1015.5
20260508151954 66 80 5.0 5.0 0.00 0.19 0.19 83 1015.4
20260508151450 66 83 1.0 2.0 0.00 0.19 0.19 84 1015.5
20260508150947 65 101 4.0 6.0 0.00 0.19 0.19 83 1015.6
20260508150444 65 99 4.0 5.0 0.00 0.19 0.19 83 1015.9
20260508145939 65 56 3.0 5.0 0.00 0.19 0.19 85 1016.0
20260508145436 65 100 4.0 5.0 0.00 0.19 0.19 84 1015.9
20260508144933 64 80 3.0 3.0 0.00 0.19 0.19 86 1015.9
20260508144431 64 84 4.0 5.0 0.00 0.19 0.19 88 1016.0
20260508143928 63 88 3.0 3.0 0.00 0.19 0.19 91 1016.2
20260508143426 63 49 2.0 2.0 0.00 0.19 0.19 91 1016.1
20260508142922 64 58 3.0 3.0 0.00 0.19 0.19 93 1016.5
20260508142419 62 64 2.0 2.0 0.00 0.19 0.19 94 1016.5
20260508141915 62 42 2.0 2.0 0.00 0.19 0.19 94 1016.6
20260508141412 62 61 1.0 2.0 0.00 0.19 0.19 94 1016.5
20260508140910 62 86 1.0 2.0 0.00 0.19 0.19 95 1016.2
20260508140406 62 82 0.0 0.0 0.00 0.19 0.19 95 1016.2
20260508135902 62 87 3.0 3.0 0.00 0.19 0.19 95 1016.0
20260508135359 62 95 3.0 3.0 0.00 0.19 0.19 95 1016.1
20260508134855 61 103 3.0 3.0 0.00 0.19 0.19 96 1015.9
20260508134346 61 80 1.0 2.0 0.00 0.19 0.19 96 1015.9
20260508133843 61 98 4.0 5.0 0.00 0.19 0.19 96 1016.1
20260508133341 60 92 2.0 2.0 0.00 0.19 0.19 96 1016.0
20260508132838 60 95 1.0 1.0 0.00 0.19 0.19 96 1016.1
20260508132335 60 98 2.0 2.0 0.00 0.19 0.19 96 1016.1
20260508131832 60 68 1.0 1.0 0.00 0.19 0.19 96 1016.7
20260508131327 60 82 1.0 1.0 0.00 0.19 0.19 96 1016.3
20260508130824 60 103 1.0 1.0 0.00 0.19 0.19 96 1016.6
20260508130321 59 124 0.0 0.0 0.05 0.19 0.19 96 1016.6
20260508125818 59 125 0.0 0.0 0.05 0.19 0.19 96 1017.0
20260508125314 59 144 3.0 3.0 0.07 0.18 0.18 96 1016.5
20260508124812 59 94 1.0 1.0 0.07 0.18 0.18 96 1016.6
20260508124308 59 79 0.0 1.0 0.05 0.17 0.17 96 1016.7
20260508123807 59 117 3.0 3.0 0.05 0.17 0.17 96 1016.3
20260508123305 59 135 4.0 5.0 0.00 0.16 0.16 96 1016.5
20260508122801 59 334 3.0 5.0 0.00 0.16 0.16 96 1017.2
20260508122258 59 64 1.0 1.0 0.00 0.16 0.16 95 1016.3
20260508121755 59 63 1.0 1.0 0.00 0.16 0.16 95 1016.5
20260508121254 59 120 0.0 1.0 0.00 0.16 0.16 95 1016.6
20260508120750 59 120 1.0 1.0 0.00 0.16 0.16 95 1016.2
20260508120248 59 122 1.0 1.0 0.00 0.16 0.16 95 1016.0
20260508115745 59 113 1.0 1.0 0.07 0.16 0.16 95 1016.2
20260508115243 59 142 1.0 1.0 0.07 0.16 0.16 95 1016.5
20260508114738 59 127 1.0 1.0 0.00 0.15 0.15 95 1016.1
20260508114236 59 130 2.0 2.0 0.12 0.15 0.15 94 1016.1
20260508113732 59 121 1.0 2.0 0.12 0.15 0.15 94 1016.5
20260508113231 59 157 1.0 1.0 0.42 0.13 0.13 94 1016.6
20260508112721 59 209 5.0 5.0 0.78 0.13 0.13 94 1016.6
20260508112218 59 99 5.0 6.0 0.35 0.06 0.06 94 1016.3
20260508111715 59 217 5.0 6.0 0.00 0.00 0.00 94 1017.7
20260508111213 59 233 4.0 5.0 0.00 0.00 0.00 94 1017.4
20260508110710 59 73 0.0 0.0 0.00 0.00 0.00 93 1016.9
20260508110207 59 328 4.0 5.0 0.00 0.00 0.00 93 1017.4
20260508105706 59 277 12.0 14.0 0.00 0.00 0.00 93 1017.5
20260508105204 59 292 3.0 3.0 0.00 0.00 0.00 94 1016.1
20260508104701 59 156 2.0 2.0 0.00 0.00 0.00 94 1015.5
20260508104158 59 148 5.0 6.0 0.00 0.00 0.00 94 1015.2
20260508103655 59 144 4.0 5.0 0.00 0.00 0.00 94 1015.1
20260508103152 58 152 3.0 5.0 0.00 0.00 0.00 94 1015.2
20260508102649 58 161 4.0 5.0 0.00 0.00 0.00 95 1014.8
20260508102147 58 131 4.0 6.0 0.00 0.00 0.00 95 1014.9
20260508101644 58 131 4.0 5.0 0.00 0.00 0.00 95 1014.9
20260508101142 57 121 3.0 3.0 0.00 0.00 0.00 94 1015.2
20260508100639 58 97 3.0 3.0 0.00 0.00 0.00 93 1015.5
20260508100137 58 55 0.0 1.0 0.00 0.00 0.00 93 1015.6
20260508095633 58 70 1.0 1.0 0.00 0.00 0.00 93 1015.5
20260508095130 58 105 0.0 0.0 0.00 0.00 0.00 93 1015.9
20260508094627 59 106 0.0 1.0 0.00 0.00 0.00 92 1015.8
20260508094124 59 311 1.0 1.0 0.00 0.00 0.00 92 1015.7
20260508093621 59 311 0.0 0.0 0.00 0.00 0.00 92 1015.7
20260508093119 59 298 3.0 3.0 0.00 0.00 0.00 92 1016.3
20260508092616 59 191 2.0 2.0 0.00 0.00 0.00 92 1015.8
20260508092114 59 119 3.0 3.0 0.00 0.00 0.00 92 1015.2
20260508091611 59 105 1.0 2.0 0.00 0.00 0.00 92 1015.3
20260508091108 59 94 3.0 3.0 0.00 0.00 0.00 92 1015.2
20260508090606 59 149 3.0 3.0 0.00 0.00 0.00 92 1015.7
20260508090103 59 168 3.0 3.0 0.00 0.00 0.00 93 1016.1
20260508085559 59 149 2.0 3.0 0.00 0.00 0.00 93 1015.9
20260508085057 59 177 5.0 6.0 0.00 0.00 0.00 93 1015.8
20260508084553 59 134 3.0 5.0 0.00 0.00 0.00 94 1016.1
20260508084050 59 207 3.0 3.0 0.00 0.00 0.00 94 1016.5
20260508083547 59 205 3.0 3.0 0.00 0.00 0.00 95 1016.5
20260508083044 59 232 4.0 5.0 0.00 0.00 0.00 95 1016.9
20260508082540 59 236 3.0 5.0 0.00 0.00 0.00 95 1016.8
20260508082037 58 191 2.0 2.0 0.00 0.00 0.00 95 1016.8
20260508081535 58 54 0.0 0.0 0.00 0.00 0.00 95 1016.5
20260508081031 58 52 1.0 1.0 0.00 0.00 0.00 95 1016.5
20260508080529 57 71 1.0 1.0 0.00 0.00 0.00 95 1016.7
20260508080026 57 71 0.0 0.0 0.00 0.00 0.00 95 1016.6
20260508075522 57 71 0.0 0.0 0.00 0.00 0.00 95 1016.6
20260508075020 56 71 0.0 1.0 0.00 0.00 0.00 95 1016.7
20260508074518 56 71 0.0 1.0 0.00 0.00 0.00 94 1016.5
20260508074014 57 71 1.0 1.0 0.00 0.00 0.00 94 1016.1
20260508073511 57 72 1.0 1.0 0.00 0.00 0.00 94 1016.2
20260508073009 57 72 1.0 1.0 0.00 0.00 0.00 95 1016.6
20260508072504 57 71 1.0 1.0 0.00 0.00 0.00 94 1016.8
20260508072002 57 71 1.0 1.0 0.00 0.00 0.00 94 1016.8
20260508071500 57 71 0.0 1.0 0.00 0.00 0.00 93 1017.0
20260508070957 57 71 0.0 0.0 0.00 0.00 0.00 93 1016.8
20260508070455 58 70 0.0 1.0 0.00 0.00 0.00 94 1016.9
20260508065953 58 71 0.0 0.0 0.00 0.00 0.00 94 1017.3
20260508065450 58 71 0.0 1.0 0.00 0.00 0.00 94 1017.3
20260508064949 58 70 0.0 1.0 0.00 0.00 0.00 94 1017.3
20260508064446 58 72 2.0 2.0 0.00 0.00 0.00 94 1017.0
20260508063943 58 73 0.0 0.0 0.00 0.00 0.00 93 1017.3
20260508063440 58 73 0.0 0.0 0.00 0.00 0.00 93 1017.0
20260508062938 58 73 0.0 0.0 0.00 0.00 0.00 93 1017.2
20260508062436 58 73 0.0 0.0 0.00 0.00 0.00 93 1017.1
20260508061932 58 73 0.0 0.0 0.00 0.00 0.00 93 1017.1
20260508061430 58 73 0.0 0.0 0.00 0.00 0.00 93 1017.0
20260508060926 58 73 0.0 0.0 0.00 0.00 0.00 93 1017.1
20260508060424 58 73 0.0 0.0 0.00 0.00 0.00 92 1017.5
20260508055919 58 73 0.0 0.0 0.00 0.00 0.00 92 1017.3
20260508055416 58 73 0.0 0.0 0.00 0.00 0.00 92 1017.4
20260508054913 58 73 1.0 1.0 0.00 0.00 0.00 92 1017.5
20260508054410 58 73 0.0 0.0 0.00 0.00 0.00 92 1017.5
20260508053907 58 73 0.0 0.0 0.00 0.00 0.00 92 1017.4
20260508053404 58 73 0.0 0.0 0.00 0.00 0.00 91 1017.3
20260508052902 59 73 1.0 1.0 0.00 0.00 0.00 91 1017.3
20260508052359 59 73 0.0 1.0 0.00 0.00 0.00 91 1017.5
20260508051855 59 73 0.0 1.0 0.00 0.00 0.00 91 1017.4
20260508051351 59 73 1.0 1.0 0.00 0.00 0.00 91 1017.5
20260508050847 59 73 0.0 0.0 0.00 0.00 0.00 91 1017.4
20260508050344 58 73 1.0 1.0 0.00 0.00 0.00 91 1017.5
20260508045840 58 73 0.0 0.0 0.00 0.00 0.00 91 1017.5
20260508045338 58 73 0.0 0.0 0.00 0.00 0.00 91 1017.5
20260508044836 58 73 0.0 0.0 0.00 0.00 0.00 91 1017.4
20260508044331 58 73 0.0 0.0 0.00 0.00 0.00 90 1017.2
20260508043828 58 73 0.0 0.0 0.00 0.00 0.00 90 1017.2
20260508043325 59 73 0.0 0.0 0.00 0.00 0.00 90 1017.3
20260508042821 59 73 1.0 1.0 0.00 0.00 0.00 90 1017.2
20260508042319 59 73 1.0 1.0 0.00 0.00 0.00 90 1017.3
20260508041816 59 76 0.0 1.0 0.00 0.00 0.00 90 1017.1
20260508041312 59 76 0.0 0.0 0.00 0.00 0.00 90 1017.0
20260508040809 59 76 0.0 0.0 0.00 0.00 0.00 89 1017.4
20260508040307 59 76 0.0 0.0 0.00 0.00 0.00 89 1017.2
20260508035803 59 76 0.0 0.0 0.00 0.00 0.00 87 1017.5
20260508035301 60 76 0.0 0.0 0.00 0.00 0.00 87 1017.4
20260508034757 60 75 1.0 1.0 0.00 0.00 0.00 87 1017.3
20260508034255 60 180 1.0 1.0 0.00 0.00 0.00 87 1017.4
20260508033752 60 182 1.0 1.0 0.00 0.00 0.00 87 1017.4
20260508033250 60 182 0.0 0.0 0.00 0.00 0.00 87 1017.5
20260508032747 60 182 0.0 0.0 0.00 0.00 0.00 86 1017.2
20260508032244 60 182 0.0 0.0 0.00 0.00 0.00 86 1017.1
20260508031741 60 182 0.0 0.0 0.00 0.00 0.00 86 1017.0
20260508031237 60 182 0.0 0.0 0.00 0.00 0.00 85 1017.1
20260508030734 60 182 0.0 0.0 0.00 0.00 0.00 85 1017.0
20260508030231 60 182 0.0 0.0 0.00 0.00 0.00 85 1017.2
20260508025727 60 182 0.0 0.0 0.00 0.00 0.00 84 1017.2
20260508025225 60 182 0.0 0.0 0.00 0.00 0.00 84 1017.3
20260508024720 60 182 0.0 0.0 0.00 0.00 0.00 83 1017.1
20260508024218 61 182 0.0 0.0 0.00 0.00 0.00 83 1017.0
20260508023714 61 182 0.0 0.0 0.00 0.00 0.00 83 1016.7
20260508023212 61 182 0.0 0.0 0.00 0.00 0.00 83 1016.7
20260508022707 61 182 0.0 0.0 0.00 0.00 0.00 82 1016.9
20260508022205 62 182 0.0 0.0 0.00 0.00 0.00 82 1016.8
20260508021701 62 182 0.0 0.0 0.00 0.00 0.00 81 1016.7
20260508021156 62 182 0.0 0.0 0.00 0.00 0.00 78 1016.8
20260508020654 62 182 0.0 0.0 0.00 0.00 0.00 79 1016.7
20260508020151 62 182 0.0 0.0 0.00 0.00 0.00 79 1016.8
20260508015649 63 182 0.0 0.0 0.00 0.00 0.00 78 1016.9
20260508015146 63 182 0.0 1.0 0.00 0.00 0.00 78 1016.9
20260508014642 63 182 0.0 0.0 0.00 0.00 0.00 78 1016.9
20260508014138 63 182 1.0 1.0 0.00 0.00 0.00 77 1016.6
20260508013634 63 182 0.0 0.0 0.00 0.00 0.00 77 1016.6
20260508013131 64 183 1.0 2.0 0.00 0.00 0.00 77 1016.8